EW2099 Weather Reports


Display with metric or nautical units.
time (UTC)temp
F
wind
direction
speed
MPH
gust
MPH
rain 1hr
in
rain 24hr
in
rain mn
in
humidity
%
barometer
mb
20260905140020 67 297 3.0 14.0 0.00 0.00 0.00 52 1025.0
20260905134520 68 287 4.0 9.0 0.00 0.00 0.00 52 1025.0
20260905133024 68 263 1.0 11.0 0.00 0.00 0.00 52 1024.8
20260905131530 68 301 3.0 9.0 0.00 0.00 0.00 52 1024.8
20260905130017 68 287 2.0 10.0 0.00 0.00 0.00 52 1024.8
20260905124517 68 297 3.0 7.0 0.00 0.02 0.00 52 1024.7
20260905123015 67 276 3.0 9.0 0.00 0.02 0.00 52 1024.6
20260905121513 68 352 2.0 10.0 0.00 0.02 0.00 52 1024.4
20260905120011 67 245 4.0 10.0 0.00 0.02 0.00 52 1024.1
20260905114512 67 303 4.0 13.0 0.00 0.08 0.00 52 1024.0
20260905113014 67 270 2.0 12.0 0.00 0.08 0.00 53 1024.0
20260905111508 67 260 3.0 9.0 0.00 0.08 0.00 52 1024.1
20260905110013 67 18 4.0 11.0 0.00 0.08 0.00 51 1023.8
20260905104506 67 268 2.0 11.0 0.00 0.08 0.00 52 1023.6
20260905103005 67 30 3.0 13.0 0.00 0.08 0.00 52 1023.6
20260905101505 66 302 3.0 11.0 0.00 0.08 0.00 52 1023.5
20260905100115 66 231 3.0 9.0 0.00 0.08 0.00 52 1023.3
20260905094617 66 218 3.0 12.0 0.00 0.08 0.00 51 1023.3
20260905093059 66 19 2.0 13.0 0.00 0.08 0.00 52 1023.1
20260905091612 66 327 3.0 12.0 0.00 0.08 0.00 53 1022.9
20260905090053 66 308 3.0 11.0 0.00 0.08 0.00 52 1022.7
20260905084552 66 239 4.0 10.0 0.00 0.08 0.00 54 1022.6
20260905083049 65 267 3.0 10.0 0.00 0.08 0.00 54 1022.4
20260905081547 65 3 3.0 10.0 0.00 0.08 0.00 54 1022.2
20260905080046 65 252 3.0 9.0 0.00 0.08 0.00 55 1022.0
20260905074554 64 245 2.0 10.0 0.00 0.08 0.00 56 1021.7
20260905073058 64 343 3.0 13.0 0.00 0.08 0.00 56 1021.6
20260905071540 63 299 3.0 11.0 0.00 0.08 0.00 57 1021.5
20260905070038 63 311 4.0 12.0 0.00 0.08 0.00 58 1021.4
20260905064537 63 295 3.0 15.0 0.00 0.08 0.00 58 1021.2
20260905063039 63 242 3.0 10.0 0.00 0.08 0.00 58 1021.1
20260905061533 63 226 3.0 10.0 0.00 0.08 0.00 58 1020.9
20260905060031 63 307 2.0 12.0 0.00 0.08 0.00 58 1020.7
20260905054529 62 288 2.0 8.0 0.00 0.08 0.00 59 1020.5
20260905053034 63 254 3.0 11.0 0.00 0.08 0.00 59 1020.4
20260905051527 62 268 2.0 8.0 0.00 0.08 0.00 59 1020.3
20260905050025 62 309 2.0 12.0 0.00 0.08 0.00 59 1020.0
20260905044522 62 253 2.0 13.0 0.00 0.08 0.00 59 1019.7
20260905043019 63 258 2.0 10.0 0.00 0.08 0.00 59 1019.5
20260905041517 63 72 2.0 10.0 0.00 0.08 0.00 58 1019.5
20260905040022 63 311 2.0 11.0 0.00 0.08 0.00 58 1019.5
20260905034514 63 338 2.0 9.0 0.00 0.08 0.00 57 1019.3
20260905033026 63 231 3.0 10.0 0.00 0.08 0.00 57 1019.2
20260905031521 63 277 2.0 9.0 0.00 0.08 0.00 57 1019.1
20260905030011 63 309 2.0 9.0 0.00 0.08 0.00 57 1019.1
20260905024510 63 252 1.0 9.0 0.00 0.08 0.00 56 1019.0
20260905023029 63 330 1.0 9.0 0.00 0.08 0.00 56 1018.9
20260905021506 63 340 3.0 11.0 0.00 0.08 0.00 55 1018.7
20260905020005 63 255 3.0 14.0 0.00 0.08 0.00 55 1018.8
20260905014501 64 285 4.0 12.0 0.00 0.08 0.00 54 1018.7
20260905013100 64 297 3.0 14.0 0.00 0.08 0.00 54 1018.6
20260905011604 64 270 2.0 11.0 0.00 0.08 0.00 54 1018.6
20260905010057 64 46 3.0 10.0 0.00 0.08 0.00 53 1018.5
20260905004555 64 225 3.0 12.0 0.00 0.08 0.00 53 1018.6
20260905003053 64 209 3.0 9.0 0.00 0.08 0.00 53 1018.3
20260905001555 64 301 2.0 9.0 0.00 0.08 0.00 52 1018.4
20260905000101 64 31 2.0 8.0 0.00 0.08 0.00 53 1018.1
20260904234548 65 327 3.0 10.0 0.00 0.08 0.00 53 1018.1
20260904233049 65 342 3.0 11.0 0.00 0.08 0.00 52 1018.0
20260904231544 65 253 4.0 13.0 0.00 0.08 0.00 52 1018.1
20260904230043 65 300 4.0 12.0 0.00 0.08 0.00 51 1018.0
20260904224541 65 38 3.0 11.0 0.00 0.08 0.00 51 1017.9
20260904223039 65 297 4.0 11.0 0.00 0.08 0.00 51 1017.9
20260904221538 65 355 4.0 10.0 0.00 0.08 0.00 51 1017.8
20260904214535 65 338 4.0 13.0 0.00 0.08 0.08 51 1017.7
20260904213036 65 269 3.0 17.0 0.00 0.08 0.08 51 1017.7
20260904211538 66 324 2.0 14.0 0.00 0.08 0.08 51 1017.5
20260904210037 66 41 4.0 12.0 0.00 0.08 0.08 51 1017.4
20260904204535 66 333 3.0 8.0 0.00 0.08 0.08 51 1017.2
20260904201526 66 293 3.0 9.0 0.00 0.08 0.08 51 1017.1
20260904200033 66 288 3.0 10.0 0.00 0.08 0.08 51 1017.0
20260904194545 67 321 4.0 13.0 0.00 0.08 0.08 54 1016.6
20260904193025 67 223 5.0 11.0 0.00 0.08 0.08 52 1016.2
20260904191536 67 277 3.0 12.0 0.00 0.08 0.08 52 1016.1
20260904190024 67 267 4.0 12.0 0.00 0.08 0.08 53 1016.1
20260904184523 67 359 4.0 14.0 0.00 0.08 0.08 53 1016.0
20260904183023 67 309 4.0 12.0 0.00 0.08 0.08 52 1016.0
20260904181522 67 316 3.0 14.0 0.00 0.08 0.08 51 1015.9
20260904180023 67 274 3.0 10.0 0.00 0.08 0.08 54 1015.5
20260904174545 67 249 3.0 14.0 0.00 0.08 0.08 53 1015.6
20260904173020 67 254 3.0 12.0 0.00 0.08 0.08 55 1015.4
20260904171522 67 4 3.0 9.0 0.00 0.08 0.08 55 1015.1
20260904170022 67 264 1.0 10.0 0.00 0.08 0.08 57 1015.1
20260904164518 68 218 3.0 8.0 0.00 0.08 0.08 56 1014.8
20260904163018 68 248 4.0 12.0 0.00 0.08 0.08 57 1015.0
20260904161517 68 267 1.0 8.0 0.00 0.08 0.08 57 1014.6
20260904160021 68 267 2.0 7.0 0.00 0.08 0.08 56 1014.6
20260904154517 68 277 3.0 12.0 0.00 0.08 0.08 56 1014.6
20260904153023 69 211 2.0 13.0 0.00 0.08 0.08 59 1014.6
20260904151515 69 259 2.0 9.0 0.00 0.08 0.08 59 1014.4
20260904150016 68 293 5.0 13.0 0.00 0.08 0.08 59 1014.6
20260904144515 68 245 3.0 11.0 0.00 0.08 0.08 59 1014.5
20260904143015 68 297 5.0 11.0 0.00 0.08 0.08 59 1014.3
20260904141514 67 31 4.0 10.0 0.00 0.08 0.08 60 1014.3